Change the Weather History Date:

Thursday, January 9, 2014

  Actual Average Record
Temperature  
Mean Temperature 28 °F 28 °F  
Max Temperature 38 °F 34 °F 56 °F (1953)
Min Temperature 18 °F 22 °F -12 °F (1974)
Degree Days  
Heating Degree Days 37 37  
Month to date heating degree days 317 342  
Since 1 July heating degree days 2902 2928  
Cooling Degree Days 0 0  
Month to date cooling degree days 0 0  
Year to date cooling degree days 0 0  
Moisture  
Dew Point 23 °F    
Average Humidity 88    
Maximum Humidity 100    
Minimum Humidity 76    
Precipitation  
Precipitation T in 0.03 in 0.55 in (1995)
Month to date precipitation 0.02 0.30  
Year to date precipitation 0.02 0.30  
Sea Level Pressure  
Sea Level Pressure 29.81 in    
Wind  
Wind Speed 4 mph (SSW)    
Max Wind Speed 13 mph    
Max Gust Speed 17 mph    
Visibility 4 miles    
Events Fog    
T = Trace of Precipitation, MM = Missing Value Source: NWS Daily Summary

Daily Weather History Graph

Daily Weather History Graph

Search for Another Location

Airport or City:

Trip Planner

Search our weather history database for the weather conditions in past years. The results will help you decide how hot, cold, wet, or windy it might be!

Date:

Astronomy

Jan. 09, 2014 Rise Set
Actual Time 7:43 AM PST 4:27 PM PST
Civil Twilight 7:08 AM PST 5:02 PM PST
Nautical Twilight 6:30 AM PST 5:40 PM PST
Astronomical Twilight 5:53 AM PST 6:17 PM PST
Moon 12:06 PM PST (1/9) 1:46 AM PST (1/9)
Length of Visible Light 9h 53m
Length of Day
8h 43m
Waxing Gibbous, 67% of the Moon is Illuminated
Jan 9
Waxing Gibbous
Jan 15
Full
Jan 23
Last Quarter
Jan 30
New
Feb 6
First Quarter

Hourly Weather History & Observations

Time (PST) Temp. Windchill Dew Point Humidity Pressure Visibility Wind Dir Wind Speed Gust Speed Precip Events Conditions
12:22 AM 26.6 °F - 24.8 °F 93% 29.73 in 4.0 mi Calm Calm - N/A   Mostly Cloudy
12:29 AM 26.6 °F - 24.8 °F 93% 29.73 in 4.0 mi Calm Calm - N/A   Scattered Clouds
12:46 AM 24.8 °F - 21.2 °F 86% 29.73 in 1.5 mi Calm Calm - N/A   Partly Cloudy
12:50 AM 24.8 °F - 21.2 °F 86% 29.73 in 0.8 mi Calm Calm - N/A   Mist
12:53 AM 24.1 °F - 21.9 °F 91% 29.79 in 0.8 mi Calm Calm - N/A   Clear
1:02 AM 24.8 °F 20.5 °F 21.2 °F 86% 29.74 in 0.5 mi SSW 3.5 mph - N/A Fog Light Freezing Fog
1:10 AM 23.0 °F - 21.2 °F 93% 29.74 in 2.0 mi Calm Calm - N/A   Mostly Cloudy
1:18 AM 24.8 °F - 21.2 °F 86% 29.74 in 4.0 mi Calm Calm - N/A   Mostly Cloudy
1:30 AM 24.8 °F 17.9 °F 21.2 °F 86% 29.74 in 1.8 mi SSE 5.8 mph - N/A   Overcast
1:39 AM 24.8 °F 19.1 °F 23.0 °F 93% 29.73 in 0.2 mi South 4.6 mph - N/A Fog Light Freezing Fog
1:53 AM 24.1 °F - 23.0 °F 96% 29.78 in 0.2 mi Calm Calm - N/A Fog Light Freezing Fog
2:17 AM 24.8 °F 20.5 °F 23.0 °F 93% 29.75 in 0.2 mi SW 3.5 mph - N/A Fog Light Freezing Fog
2:29 AM 24.8 °F 16.1 °F 23.0 °F 93% 29.75 in 0.5 mi SW 8.1 mph - N/A Fog Light Freezing Fog
2:40 AM 24.8 °F - 23.0 °F 93% 29.76 in 2.0 mi Calm Calm - N/A   Overcast
2:50 AM 24.8 °F 20.5 °F 23.0 °F 93% 29.76 in 1.0 mi SSW 3.5 mph - N/A   Mist
2:51 AM 24.1 °F - 23.0 °F 96% 29.81 in 1.0 mi Calm Calm - N/A   Mist
3:20 AM 24.8 °F - 24.8 °F 100% 29.78 in 0.5 mi Calm Calm - N/A Fog Light Freezing Fog
3:31 AM 24.8 °F - 24.8 °F 100% 29.78 in 0.2 mi Calm Calm - N/A Fog Light Freezing Fog
3:39 AM 24.8 °F - 23.0 °F 93% 29.79 in 0.5 mi Calm Calm - N/A Fog Light Freezing Fog
3:42 AM 24.8 °F - 21.2 °F 86% 29.79 in 0.2 mi Calm Calm - N/A Fog Light Freezing Fog
3:53 AM 24.1 °F 15.2 °F 23.0 °F 96% 29.83 in 0.5 mi NE 8.1 mph - N/A Fog Light Freezing Fog
4:01 AM 24.8 °F - 23.0 °F 93% 29.79 in 0.2 mi Calm Calm - N/A Fog Light Freezing Fog
4:53 AM 24.1 °F - 21.9 °F 91% 29.85 in 0.2 mi Calm Calm - N/A Fog Light Freezing Fog
5:53 AM 23.0 °F - 18.0 °F 81% 29.87 in 0.2 mi Calm Calm - N/A   Haze
6:53 AM 21.0 °F 16.2 °F 16.0 °F 81% 29.89 in 0.2 mi West 3.5 mph - N/A   Haze
6:58 AM 21.2 °F - 15.8 °F 80% 29.84 in 1.0 mi Calm Calm - N/A   Haze
7:05 AM 19.4 °F 12.8 °F 12.2 °F 74% 29.85 in 1.8 mi South 4.6 mph - N/A   Haze
7:11 AM 17.6 °F 10.7 °F 12.2 °F 79% 29.85 in 3.0 mi SSW 4.6 mph - N/A   Haze
7:25 AM 19.4 °F - 14.0 °F 80% 29.85 in 2.5 mi Calm Calm - N/A   Haze
7:35 AM 17.6 °F 9.3 °F 12.2 °F 79% 29.85 in 3.0 mi SSW 5.8 mph - N/A   Haze
7:53 AM 19.9 °F - 14.0 °F 78% 29.91 in 3.0 mi Calm Calm - N/A   Haze
8:53 AM 28.0 °F 24.2 °F 23.0 °F 81% 29.93 in 6.0 mi SSE 3.5 mph - N/A   Haze
9:53 AM 30.9 °F - 27.0 °F 85% 29.94 in 7.0 mi Calm Calm - N/A   Clear
10:53 AM 32.0 °F - 30.0 °F 92% 29.94 in 10.0 mi Calm Calm - N/A   Clear
11:53 AM 34.0 °F 26.6 °F 28.9 °F 82% 29.94 in 10.0 mi SSW 9.2 mph - N/A   Clear
12:53 PM 37.0 °F 29.3 °F 30.0 °F 76% 29.93 in 10.0 mi SW 11.5 mph - N/A   Overcast
1:53 PM 37.0 °F 34.5 °F 30.0 °F 76% 29.92 in 10.0 mi SW 3.5 mph - N/A   Overcast
3:53 PM 36.0 °F - 30.9 °F 82% 29.88 in 10.0 mi Calm Calm - N/A   Overcast
4:53 PM 36.0 °F 30.3 °F 30.9 °F 82% 29.86 in 10.0 mi SSE 6.9 mph - N/A   Overcast
5:53 PM 36.0 °F 29.6 °F 32.0 °F 86% 29.82 in 10.0 mi South 8.1 mph - 0.00 in   Overcast
6:53 PM 37.0 °F 29.3 °F 32.0 °F 82% 29.77 in 10.0 mi South 11.5 mph - N/A   Mostly Cloudy
7:53 PM 37.0 °F 29.8 °F 32.0 °F 82% 29.76 in 10.0 mi South 10.4 mph - N/A   Overcast
8:53 PM 32.0 °F - 30.0 °F 92% 29.73 in 10.0 mi Calm Calm - N/A   Clear
9:53 PM 32.0 °F - 28.9 °F 88% 29.73 in 10.0 mi Calm Calm - N/A   Clear
10:53 PM 27.0 °F - 26.1 °F 96% 29.74 in 10.0 mi Calm Calm - N/A   Clear
11:53 PM 27.0 °F 21.6 °F 24.1 °F 89% 29.75 in 10.0 mi NNE 4.6 mph - N/A   Clear